SCP
0 0 0 0 0 -0 -0 -0 0 0 0 0 0 0 0 0 0 0 0 0 0 0 0 0 0 0 0 0 0 0 0 0 0 0 0 0 0 0 0 0 0 0 0
0 0 0 0 0 -0 -0 -0 0 0 0 0 0 0 0 0 0 0 0 0 0 0 0 0 0 0 0 0 0 0 0 0 0 0 0 0 0 0 0 0 0 0 0
0 0 0 0 0 -0 -0 -0 0 0 0 0 0 0 0 0 0 0 0 0 0 0 0 0 0 0 0 0 0 0 0 0 0 0 0 0 0 0 0 0 0 0 0
0 0 0 0 0 0 0 0 0 0 0 0 0 0 0 0 0 0 0 0 0 0 0 0 0 0 0 0 0 0 0 0 0 0 0 0 0 0 0 0 0 0 0
0 0 0 0 0 0 0 0 0 0 0 0 0 0 0 0 0 0 0 0 0 0 0 0 0 0 0 0 0 0 0 0 0 0 0 0 0 0 0 0 0 0 0
0 0 0 0 0 0 0 0 0 0 0 0 0 0 0 0 0 0 0 0 0 0 0 0 0 0 0 0 0 0 0 0 0 0 0 0 0 0 0 0 0 0 0
0 0 0 0 0 0 0 0 0 0 0 0 0 0 0 0 0 0 0 0 0 0 0 0 0 0 0 0 0 0 0 0 0 0 0 0 0 0 0 0 0 0 0
0 0 0 0 0 0 0 0 0 0 0 0 0 0 0 0 0 0 0 0 0 0 0 0 0 0 0 0 0 0 0 0 0 0 0 0 0 0 0 0 0 0 0
0 0 0 0 0 0 0 0 0 0 0 0 0 0 0 0 0 0 0 0 0 0 0 0 0 0 0 0 0 0 0 0 0 0 0 0 0 0 0 0 0 0 0
0 0 0 0 0 0 0 0 0 0 0 0 0 0 0 0 0 0 0 0 0 0 0 0 0 0 0 0 0 0 0 0 0 0 0 0 0 0 0 0 0 0 0
0 0 0 0 0 0 0 0 0 0 0 0 0 0 0 0 0 0 0 0 0 0 0 0 0 0 0 0 0 0 0 0 0 0 0 0 0 0 0 0 0 0 0
0 0 0 0 0 0 0 0 0 0 0 0 0 0 0 0 0 0 0 0 0 0 0 0 0 0 0 0 0 0 0 0 0 0 0 0 0 0 0 0 0 0 0
0 0 0 0 0 0 0 0 0 0 0 0 0 0 0 0 0 0 0 0 0 0 0 0 0 0 0 0 0 0 0 0 0 0 0 0 0 0 0 0 0 0 0
0 0 0 0 0 0 0 0 0 0 0 0 0 0 0 0 0 0 0 0 0 0 0 0 0 0 0 0 0 0 0 0 0 0 0 0 0 0 0 0 0 0 0
0 0 0 0 0 0 0 0 0 0 0 0 0 0 0 0 0 0 0 0 0 0 0 0 0 0 0 0 0 0 0 0 0 0 0 0 0 0 0 0 0 0 0
0 0 0 0 0 0 0 0 0 0 0 0 0 0 0 0 0 0 0 0 0 0 0 0 0 0 0 0 0 0 0 0 0 0 0 0 0 0 0 0 0 0 0
0 0 0 0 0 0 0 0 0 0 0 0 0 0 0 0 0 0 0 0 0 0 0 0 0 0 0 0 0 0 0 0 0 0 0 0 0 0 0 0 0 0 0
0 0 0 0 0 0 0 0 0 0 0 0 0 0 0 0 0 0 0 0 0 0 0 0 0 0 0 0 0 0 0 0 0 0 0 0 0 0 0 0 0 0 0
0 0 0 0 0 0 0 0 0 0 0 0 0 0 0 0 0 0 0 0 0 0 0 0 0 0 0 0 0 0 0 0 0 0 0 0 0 0 0 0 0 0 0
0 0 0 0 0 0 0 0 0 0 0 0 0 0 0 0 0 0 0 0 0 0 0 0 0 0 0 0 0 0 0 0 0 0 0 0 0 0 0 0 0 0 0
0 0 0 0 0 0 0 0 0 0 0 0 0 0 0 0 0 0 0 0 0 0 0 0 0 0 0 0 0 0 0 0 0 0 0 0 0 0 0 0 0 0 0
0 0 0 0 0 0 0 0 0 0 0 0 0 0 0 0 0 0 0 0 0 0 0 0 0 0 0 0 0 0 0 0 0 0 0 0 0 0 0 0 0 0 0
0 0 0 0 0 0 0 0 0 0 0 0 0 0 0 0 0 0 0 0 0 0 0 0 0 0 0 0 0 0 0 0 0 0 0 0 0 0 0 0 0 0 0
0 0 0 0 0 0 0 0 0 0 0 0 0 0 0 0 0 0 0 0 0 0 0 0 0 0 0 0 0 0 0 0 0 0 0 0 0 0 0 0 0 0 0
0 0 0 0 0 0 0 0 0 0 0 0 0 0 0 0 0 0 0 0 0 0 0 0 0 0 0 0 0 0 0 0 0 0 0 0 0 0 0 0 0 0 0
0 0 0 0 0 0 0 0 0 0 0 0 0 0 0 0 0 0 0 0 0 0 0 0 0 0 0 0 0 0 0 0 0 0 0 0 0 0 0 0 0 0 0
Wind_Speed
5 5 4 4 4 3 3 3 3 4 4 4 4 4 5 5 5 4 3 7 6 6 6 6 5 5 4 4 4 5 5 5 6 6 6 6 6 6 5 5 4 4 3
6 6 6 5 5 5 4 4 4 4 3 3 3 5 6 6 5 4 3 5 6 6 6 6 6 5 5 4 4 4 5 5 5 6 6 6 6 6 5 5 4 4 3
8 7 7 6 6 5 5 3 3 2 2 2 3 4 5 6 6 5 4 3 3 5 6 7 7 6 5 5 5 5 4 4 4 5 6 6 6 6 6 5 5 4 4
8 7 6 7 6 5 4 3 3 2 2 2 2 2 3 4 6 6 5 4 3 3 5 7 7 7 6 6 5 5 5 4 4 5 5 5 5 6 6 6 5 5 5
8 6 5 5 5 4 3 4 2 3 2 2 2 2 2 3 4 5 5 5 5 4 3 5 7 7 7 6 6 6 5 5 4 4 4 4 4 5 5 6 6 6 6
7 6 4 5 5 4 3 3 3 2 2 2 1 1 0 1 2 3 5 5 5 5 5 4 4 5 7 7 6 6 6 5 5 4 4 4 4 4 4 5 5 6 6
6 6 5 5 5 4 4 4 3 3 2 2 3 2 2 2 2 2 3 4 5 6 5 5 4 3 3 7 7 7 7 6 5 5 4 4 3 3 3 4 5 6 6
5 5 6 5 5 4 4 4 3 3 1 2 3 2 1 4 3 1 2 4 5 5 6 7 5 5 4 3 5 8 7 7 6 5 5 4 3 3 3 4 4 4 5
5 5 5 4 4 4 4 4 4 4 3 1 2 4 3 3 3 3 1 2 4 4 5 5 6 6 6 4 4 7 8 7 7 7 5 5 4 3 2 2 3 3 4
5 6 5 4 3 3 3 3 3 2 3 2 2 2 2 3 2 2 3 2 2 4 4 5 6 7 6 5 6 8 10 9 9 9 7 6 5 4 3 3 3 4 4
4 5 5 4 3 2 3 3 3 3 2 3 3 2 2 1 2 2 2 2 2 2 2 3 4 5 7 6 6 9 12 11 10 9 9 8 7 6 5 4 3 3 4
3 4 4 4 4 3 3 3 3 4 3 2 2 2 3 3 3 3 4 3 2 3 2 2 3 4 5 6 9 13 13 12 11 10 9 8 8 7 6 6 5 4 4
2 4 4 3 3 2 2 3 3 3 3 3 3 3 3 4 3 3 3 3 3 2 2 2 2 3 4 5 6 12 13 13 12 11 10 9 8 7 7 7 6 5 4
2 3 3 2 2 3 2 2 2 3 3 3 4 4 3 3 3 4 4 4 2 2 2 3 2 2 3 4 7 11 8 13 13 12 11 10 9 8 8 8 7 6 5
2 2 2 1 1 2 1 2 2 3 3 3 4 4 3 3 3 3 3 4 4 3 3 3 2 2 2 3 6 6 6 11 13 12 12 11 11 10 9 9 7 6 5
1 1 1 1 1 1 2 2 2 2 3 3 3 3 3 2 2 3 3 3 3 4 3 3 3 2 1 2 6 5 6 10 12 12 12 12 12 11 11 10 9 7 6
1 0 1 1 1 2 2 2 3 3 3 2 2 2 3 2 2 2 2 2 3 3 3 3 2 2 2 2 2 3 4 4 5 10 12 13 13 13 12 11 10 9 9
2 1 1 1 1 1 0 1 3 3 3 3 2 2 2 2 2 2 2 2 2 3 3 3 2 2 2 2 2 2 3 4 4 8 12 13 13 13 13 12 11 11 10
4 4 3 3 3 3 2 1 1 1 2 2 2 3 2 2 2 1 2 2 2 2 2 2 2 1 1 1 0 1 1 1 2 4 8 10 12 12 12 11 11 11 11
7 6 6 5 4 3 3 3 2 1 0 1 2 2 2 3 3 2 1 1 1 1 1 1 1 1 1 1 0 0 1 1 1 2 2 3 6 9 10 11 12 12 12
8 6 6 5 4 3 4 4 2 1 1 2 3 2 1 3 4 3 2 2 2 2 1 1 0 1 0 0 0 0 1 1 1 1 1 1 2 2 4 8 11 12 12
6 6 5 5 5 5 7 6 3 2 2 3 3 2 1 2 3 4 4 4 4 3 2 2 1 0 1 0 0 0 0 1 1 1 1 2 1 2 3 3 6 9 10
6 6 5 5 4 5 8 7 5 2 2 2 3 2 2 2 3 2 3 3 2 2 3 3 2 1 1 1 1 0 0 1 1 1 1 2 1 2 2 2 4 5 7
5 5 5 5 5 8 11 8 7 4 4 3 2 3 3 2 2 3 3 2 2 2 1 1 2 1 1 1 2 1 1 0 1 1 1 1 2 2 2 2 3 3 3
5 5 5 6 7 8 13 10 8 4 4 5 4 3 3 2 2 5 4 4 3 3 2 3 3 2 2 3 2 2 2 2 2 2 1 1 2 2 2 2 3 4 4
5 5 7 7 7 7 12 12 9 4 5 4 4 4 5 5 5 6 4 4 4 2 2 3 4 5 4 4 4 2 1 1 1 2 2 1 2 2 2 2 3 3 3
Wind_Direction
192 188 198 204 213 215 213 217 224 233 239 239 223 190 169 163 165 169 179 175 170 171 169 165 164 164 166 167 170 168 163 164 161 162 162 161 158 155 154 156 159 159 160
189 190 197 203 214 218 215 212 216 216 214 195 169 156 156 161 170 171 178 181 178 178 181 179 176 176 178 176 177 180 181 180 175 176 178 177 175 173 172 176 181 187 195
192 192 197 201 209 215 213 202 205 193 180 158 145 148 150 160 169 176 178 179 181 183 181 183 180 179 183 188 188 183 182 187 186 190 190 190 189 188 189 194 198 204 212
195 185 189 195 196 194 189 178 166 153 154 145 152 162 155 159 173 180 179 179 181 184 189 186 182 183 185 187 186 185 186 187 193 200 199 195 195 197 202 208 214 219 224
190 177 179 178 170 165 170 173 147 141 142 152 172 171 175 170 176 182 184 187 190 188 191 194 185 182 184 187 189 187 187 189 195 198 195 192 195 202 209 216 223 231 235
181 170 166 161 151 145 151 148 134 122 130 146 123 92 297 246 192 184 191 191 194 194 194 194 187 195 193 190 191 191 189 191 196 202 203 200 198 208 219 227 232 238 242
166 164 160 155 147 148 157 149 131 129 125 120 89 34 340 317 252 217 193 184 194 197 192 197 196 198 202 202 195 194 195 195 197 204 207 204 207 217 231 240 244 247 250
152 164 158 158 151 144 146 144 138 140 149 135 128 109 349 332 314 283 186 188 201 196 198 204 199 201 200 191 207 200 197 195 199 200 205 209 211 223 236 245 254 260 261
146 145 153 150 149 149 161 166 158 153 162 177 152 147 160 221 287 313 289 204 195 194 202 202 203 204 203 196 201 207 195 193 200 202 204 206 209 213 229 256 268 275 277
132 131 136 141 149 158 169 174 162 156 154 174 188 189 171 160 172 288 318 316 226 203 203 206 206 203 200 195 202 204 201 199 204 205 205 208 216 223 228 249 267 273 278
124 127 134 134 144 167 182 176 160 164 166 175 179 172 170 179 171 171 259 302 320 262 222 211 201 202 199 196 196 206 204 202 203 206 210 216 224 229 233 238 253 268 276
127 133 139 146 153 159 177 179 180 177 176 191 195 183 176 179 190 183 209 238 260 277 263 230 205 202 198 194 202 204 205 204 205 206 211 219 227 233 237 239 244 256 267
147 148 147 147 142 158 186 173 173 187 187 198 203 204 204 206 179 175 183 210 235 277 293 271 229 207 199 189 203 205 207 206 208 209 209 213 220 231 238 243 243 249 257
144 145 148 158 169 186 192 180 181 203 196 206 215 210 208 210 191 184 176 168 194 274 287 269 277 222 204 189 205 202 208 210 211 213 212 212 215 221 229 237 244 251 256
135 137 142 175 208 207 199 190 205 215 204 209 207 199 202 208 200 196 182 171 168 200 255 261 257 248 216 202 204 198 203 213 214 216 217 217 217 219 224 230 234 238 243
69 107 154 175 198 209 210 201 218 223 199 202 192 179 188 191 188 186 182 178 172 175 219 254 245 250 225 215 208 200 211 218 219 218 221 222 222 222 223 226 227 226 227
66 114 188 180 237 220 209 193 207 194 181 197 192 181 201 190 184 186 176 174 179 173 208 256 257 254 227 229 210 207 214 216 226 227 227 227 226 225 226 228 228 227 229
39 22 26 7 302 307 282 211 212 198 185 185 193 176 208 186 186 190 182 192 192 189 193 236 266 262 248 233 218 221 222 219 218 232 232 231 229 227 227 229 231 231 233
38 32 41 36 28 26 19 352 220 202 191 192 188 182 192 162 178 178 182 192 198 190 186 203 245 256 278 293 241 258 245 267 245 249 241 236 233 231 230 231 234 236 238
50 42 44 46 50 45 34 30 31 35 81 192 187 177 172 158 160 156 153 162 150 143 155 175 224 280 300 336 69 270 309 316 298 302 274 243 233 232 234 236 238 239 240
49 47 50 46 46 49 37 32 39 58 73 88 91 90 127 148 148 144 134 137 129 118 111 108 83 36 330 348 292 255 256 315 303 293 286 262 238 237 237 242 243 244 244
40 48 51 47 38 33 30 34 42 76 94 111 119 103 92 87 108 105 111 129 143 138 137 127 119 135 273 256 210 89 64 11 323 327 325 297 247 253 250 239 249 252 252
36 41 40 39 31 17 26 31 44 71 85 112 134 140 122 90 88 89 80 66 61 93 140 148 150 192 209 213 154 117 183 214 254 295 351 310 318 288 276 262 258 259 256
33 34 31 28 29 22 28 37 50 65 70 67 92 128 123 103 105 121 110 84 46 33 79 135 158 183 187 177 160 166 187 255 322 346 25 326 326 313 320 315 318 308 293
34 32 28 28 29 16 25 40 54 61 70 58 56 74 96 90 90 124 115 104 73 33 47 84 102 82 81 97 105 79 49 50 18 348 2 1 330 328 335 342 354 9 3
34 35 36 30 29 20 24 40 53 68 73 63 48 44 54 72 81 102 108 110 99 62 63 64 54 43 44 45 53 67 88 81 60 357 343 2 346 357 357 349 1 9 7